Время (UTC), дата Ветер
(°,м/с) 
Видим.   Явления Облачность Т
(°С)
Тd
(°С)
f(%) Тe
(°С)
Pmin
(гПа)
dP
(гПа)
Po
(мм)
O2
(г/м3)
Тmin Tmax R s Состояние
почвы
00 01.12.15 140 (ЮВ) 3-10  10 км  в посл. час снег{дождь} [диам. гололёда 1 мм]  10/10 300 м 
[St]
-0.7 -3.8 79 -3  1011.6  -1  748  302           
03 01.12.15 170 (Ю) 10 км    10/10 300 м 
[St]
-0.4 -2.3 87 -1  1011.5  -0.1  747  302  -1.9    неравномерный
мокрый или
старый снег
100% 
06 01.12.15 160 (Ю) 10 км  в посл. час снег  10/10 300 м 
[St]
+0.1 -1.4 90 -1  1011.5  0.1  747  301           
09 01.12.15 170 (Ю) 3{10}  10 км    10/10 300 м 
[St]
+0.2 -1.6 88 -2  1011.5  747  301           
12 01.12.15 140 (ЮВ) 10 км    10/10 300 м 
[St]
-0.1 -1.6 90 -1  1011.3  -0.2  747  301           
15 01.12.15 130 (ЮВ) 10 км    10/10 300 м 
[St]
-0.3 -1.7 90 -1  1011.4  0.1  747  302    +0.4  0.2     
18 01.12.15 140 (ЮВ) 2000 м  снег  10/10 300 м 
[Frnb|Ns]
-0.6 -1.6 93 -2  1010.1  -1.3  746  302           
21 01.12.15 140 (ЮВ) 1000 м  сильн. снег  10/10 300 м 
[Frnb|Ns]
-1.1 -2 94 -3  1009  -1.1  746  302           
00 02.12.15 180 (Ю) 10 км  в посл. час снег  10/10 300 м 
[Frnb|Ns]
-1 -1.8 94 1008.7  -0.3  745  302           
03 02.12.15 160 (Ю) 10 км    10/10 200 м 
[St]
-0.3 -1.1 94 1010.5  1.8  747  301  -1.2    13  равномерный
мокрый или
старый снег
100% 
06 02.12.15 170 (Ю) 10 км    10/10 600 м 
[Sc]
+0.3 -0.6 94 +1  1012.2  1.7  748  301           
09 02.12.15 170 (Ю) 10 км    9/9 600 м 
[Sc]
+0.6 -0.6 92 +1  1013.7  1.5  749  301           
12 02.12.15 140 (ЮВ) 10 км    10/10 600 м 
[Sc]
+0.2 -1.1 91 +1  1015.5  1.7  750  302           
15 02.12.15 110 (В) 10 км    10/10 600 м 
[Sc]
-0.1 -1.4 91 +1  1017.4  1.8  752  303    +0.8       
18 02.12.15 110 (В) 10 км    10/10 600 м 
[Sc]
-0.3 -1.9 89 1018.7  1.3  753  304           
21 02.12.15 100 (В) 10 км    10/10 600 м 
[Sc]
-0.5 -2.7 85 1019.4  0.7  753  304           
00 03.12.15 090 (В) 10 км    10/10 600 м 
[Sc]
-0.7 -3.4 82 -2  1020.6  1.1  754  305           
03 03.12.15 110 (В) 10 км    10/10 600 м 
[Sc]
-0.9 -3.7 81 1022  1.4  755  306  -0.9      13  равномерный
сухой снег
100% 
06 03.12.15 080 (В) 10 км    10/10 300 м 
[St]
-1.2 -3.9 82 -1  1023.6  1.5  756  307  -1.2         
09 03.12.15 070 (В) 10 км    10/10 600 м 
[Sc]
-0.6 -4.5 75 1024.4  0.8  757  306           
12 03.12.15 020 (С) 10 км    10/10 600 м 
[Sc]
-0.7 -4.5 75 1025.4  758  307           
15 03.12.15 010 (С) 10 км    10/10 600 м 
[Sc]
-0.9 -4.5 77 1026  0.6  758  307    -0.6       
18 03.12.15 320 (СЗ) 10 км    10/10 600 м 
[Sc]
-0.8 -5.4 71 1026.3  0.2  758  307           
21 03.12.15 280 (З) 10 км    10/10 600 м 
[Sc]
-1.2 -3.6 84 -1  1026.6  0.3  759  307           
00 04.12.15 260 (З) 10 км    10/10 600 м 
[Sc]
-1.3 -3.6 84 -1  1025.9  -0.7  758  307           
03 04.12.15 240 (ЮЗ) 10 км    10/10 600 м 
[Sc]
-1.4 -4.1 82 -2  1024.7  -1.2  757  307  -1.4      13  равномерный
сухой снег
100% 
06 04.12.15 240 (ЮЗ) 10 км    10/10 1000 м 
[Sc]
-1.3 -4 82 -4  1023.7  -0.9  756  307  -1.5         
09 04.12.15 240 (ЮЗ) 10 км    10/10 420 м 
[St]
-0.9 -3.2 84 -3  1021.5  -2.2  755  306           
12 04.12.15 270 (З) 4000 м  слаб. снег  10/10 300 м 
[Frnb|Ns]
-0.2 -1.8 89 -2  1019.9  -1.5  754  304           
15 04.12.15 280 (З) 10 км  в посл. час снег  10/10 400 м 
[Frnb|Ns]
+0.1 -1.6 88 -2  1019.9  754  304    +0.1  0.7     
18 04.12.15 300 (СЗ) 4000 м  слаб. снег  10/10 180 м 
[Frnb|Ns]
+0.2 -2 85 -2  1020.2  0.3  754  304           
21 04.12.15 300 (СЗ) 10 км  слаб. снег  10/10 570 м 
[Frnb|Ns]
-0.2 -2.7 83 -2  1020.5  0.2  754  304           
00 05.12.15 300 (СЗ) 10 км  {снег}  10/10 540 м 
[Sc]
-0.7 -3.9 79 -3  1020  -0.5  754  305           
03 05.12.15 270 (З) 10 км    10/10 570 м 
[Sc]
-0.9 -4.2 78 -3  1018.5  -1.4  753  305  -0.9    0.3  13  равномерный
сухой снег
100% 
06 05.12.15 240 (ЮЗ) 10 км    10/10 480 м 
[Sc]
-1.8 -4.5 82 -4  1015.9  -2.6  751  305  -1.8         
09 05.12.15 230 (ЮЗ) 10 км    10/10 400 м 
[St]
-1.9 -4.5 82 -4  1013  -2.8  749  304           
12 05.12.15 170 (Ю) 1000 м  сильн. снег  10/10 180 м 
[Frnb|Ns]
-2.4 -4 89 -2  1009.5  -3.4  746  304           
15 05.12.15 170 (Ю) 2000 м  снег  10/10 180 м 
[Frnb|Ns]
-2.1 -3.2 92 -2  1007.2  -2.3  744  303    -0.9     
18 05.12.15 240 (ЮЗ) 10 км  в посл. час снег  10/10 210 м 
[Frnb|Ns]
-0.4 -1.5 92 -2  1005.7  -1.4  743  300           
21 05.12.15 230 (ЮЗ) 2000 м  снег  10/10 210 м 
[Frnb|Ns]
+0 -1.2 92 +1  1004.9  -0.7  743  299           
00 06.12.15 250 (З) 10 км  слаб. морось{снег}  10/10 180 м 
[St]
+0.9 -0.2 92 1004.5  -0.4  742  298           
03 06.12.15 270 (З) 10 км  слаб. морось  10/10 270 м 
[St]
+1.4 +0.2 92 +1  1004.6  0.2  742  298  -2.1    13  равномерный
мокрый или
старый снег
100% 
06 06.12.15 280 (З) 10 км  {морось}  10/10 480 м 
[Sc]
+1.3 -0.1 90 +1  1006.2  1.6  744  298           
09 06.12.15 250 (З) 10 км    10/8 800 м средняя 
[Sc|As op]
+1.6 -0.9 83 +1  1005.8  -0.4  743  298           
12 06.12.15 250 (З) 10 км    10/10 800 м 
[Sc]
+1.3 -2.4 76 +1  1005.7  -0.2  743  298           
15 06.12.15 210 (ЮЗ) 10 км    10/10 420 м 
[St]
+1.3 -1.3 83 +2  1004.5  -1.1  742  298    +1.7  0.0     
18 06.12.15 240 (ЮЗ) 10 км  слаб. дождь со снегом  10/10 180 м 
[Frnb|Ns]
+1.3 -0.1 90 1001.9  -2.6  740  297           
21 06.12.15 240 (ЮЗ) 10 км  слаб. дождь со снегом  10/10 180 м 
[Frnb|Ns]
+1.4 +0.2 92 -1  1000  -1.8  739  296           
00 07.12.15 240 (ЮЗ) 10 км  слаб. морось{снег, дождь}  10/10 180 м 
[St]
+1.7 +0.7 93 998.1  -1.9  738  295           
03 07.12.15 240 (ЮЗ) 4{10}  10 км  слаб. морось  10/10 180 м 
[St]
+2.2 +1 92 994.5  -3.5  735  294  +0.9    12  равномерный
мокрый или
старый снег
100% 
06 07.12.15 240 (ЮЗ) 5{10}  10 км  слаб. дождь  10/10 210 м 
[Ns]
+2.2 +1 92 990.4  -4  732  292           
09 07.12.15 250 (З) 4{11}  н/о    н/о 
+2.4 +1.2 92 986.1  -4.2  729  291           
12 07.12.15 260 (З) 3{10}  10 км  {дождь}  10/10 600 м 
[Frnb|Ns]
+3.6 +1.6 87 +2  983.4  -2.6  727  289           
15 07.12.15 280 (З) 4{13}  10 км  {дождь}  10/9 700 м средняя 
[Frnb|As op]
+4.2 +1.3 81 +2  983.9  0.5  727  288    +4.5     
18 07.12.15 290 (З) 6-12{14}  10 км  в посл. час дождь{ливн. осадки}  10/9 750 м средняя 
[Frnb|As op]
+3 -0.5 78 986  729  290           
21 07.12.15 280 (З) 5-12{12}  10 км    10/10 210 м 
[Frnb]
+3 -1 75 +1  987.6  1.5  730  291           
00 08.12.15 280 (З) 5{12}  10 км    10/8 800 м средняя 
[Sc|As op]
+2.7 -0.7 78 988  0.4  730  291           
03 08.12.15 290 (З) 5-11{11}  10 км  {снег}  10/10 270 м 
[Frnb]
+1.6 -1.3 81 -1  989.8  1.6  731  293  +1    неравномерный
мокрый или
старый снег
100% 
06 08.12.15 290 (З) 4-10{12}  10 км  в посл. час снег  9/9 1050 м средняя 
[Sc|Ac lent]
+1.3 -2.9 74 -1  992.1  2.3  733  294           
09 08.12.15 300 (СЗ) 6-15{15}  10 км    9/9 720 м средняя 
[Sc|Ac lent]
+1 -3.5 72 -2  995.4  3.2  736  296           
12 08.12.15 320 (СЗ) 4-10{15}  10 км    9/9 1410 м 
[Sc]
+1.9 -7.6 49 998.5  3.1  738  296           
15 08.12.15 300 (СЗ) 5-11{14}  10 км    9/9 1300 м 
[Sc]
+1.6 -6.4 55 -1  1002  3.4  740  297    +1.9  0.0     
18 08.12.15 310 (СЗ) 4{15}  10 км  в посл. час снег  10/10 1320 м 
[Sc]
+1.2 -4.4 66 -1  1004.7  2.6  742  298           
21 08.12.15 320 (СЗ) 5-16{16}  10 км  {снег}  10/10 1200 м 
[Sc]
+1.2 -7.1 54 -2  1008  3.3  745  300           
00 09.12.15 310 (СЗ) 4-10{16}  10 км  слаб. снег  10/10 1320 м 
[Sc]
+1 -7 55 -1  1011.1  3.1  747  301           
03 09.12.15 310 (СЗ) 4{13}  10 км  слаб. снег  9/9 1500 м 
[Sc]
+0.6 -6.9 57 -2  1014.1  2.8  749  302  +0.6    0.0  мокрый или
старый снег
50-90% 
06 09.12.15 310 (СЗ) 3{11}  10 км  {снег}  9/9 1200 м 
[Sc]
+0.1 -6.1 63 -2  1017.5  3.4  752  303  -0.1         
09 09.12.15 310 (СЗ) 3{13}  10 км    5/5 1000 м 
[Sc]
+0.2 -8.3 53 -2  1019.7  2.1  754  304           
12 09.12.15 280 (З) 3{11}  10 км    3/0 средняя 
[Ac lent]
-0.6 -6.4 65 -2  1020.9  1.1  754  305           
15 09.12.15 270 (З) 3{10}  10 км    10/8 800 м средняя 
[Sc|Ac lent]
-1 -5.2 73 -3  1021.2  0.3  755  306    +0.7  0.0     
18 09.12.15 280 (З) 10 км    10/10 700 м 
[Sc]
-0.7 -4.1 78 -3  1020.8  -0.4  754  305           
21 09.12.15 240 (ЮЗ) 4000 м  слаб. снег  10/10 300 м 
[Frnb|Ns]
-0.7 -2 91 -2  1019.3  -1.4  753  304           
00 10.12.15 260 (З) 10 км  {снег}  8/0 средняя 
[As trans]
+0.6 -3.6 73 1018  -1.2  752  303           
03 10.12.15 270 (З) 10 км    9/0 средняя 
[Ac lent]
+0.9 -6.5 58 -1  1016.8  -1.2  751  302  -1    0.6  сухой снег
50-90% 
06 10.12.15 270 (З) 10 км    6/5 1140 м верхняя 
[Sc|Ci fib]
-0.2 -6.7 62 -2  1016.8  0.1  751  304           
09 10.12.15 250 (З) 10 км    10/3 1000 м средняя, верхняя 
[Sc|Ac As|Ci fib]
+0 -5.9 64 -2  1015.5  -1.3  750  303           
12 10.12.15 260 (З) 10 км    10/9 800 м средняя 
[Sc|As op]
+0.6 -5.1 66 -1  1015.3  -0.1  750  302           
15 10.12.15 270 (З) 2000 м  снег{ливн. осадки}  10/10 420 м 
[Frnb|Ns]
-0.5 -2.4 87 -2  1016.3  0.9  751  303    +0.9  0.2     
18 10.12.15 280 (З) 4{10}  10 км  {ливн. осадки, снег}  10/10 300 м 
[St]
+0.6 -1.5 86 -2  1017.7  1.4  752  303           
21 10.12.15 280 (З) 4{10}  10 км    10/10 480 м 
[Sc]
+1.3 -0.9 85 -1  1018.7  1.1  753  302           
00 11.12.15 260 (З) 10 км    10/10 900 м 
[Sc]
+1.4 -1.3 82 +1  1019.7  754  302           
03 11.12.15 270 (З) 4{10}  10 км    10/10 630 м 
[Sc]
+0.9 -2.8 76 -1  1019.8  0.1  754  303  -0.5    0.2  мокрый или
старый снег
50-90% 
06 11.12.15 270 (З) 4{11}  10 км    9/9 500 м 
[Sc]
-0 -3.2 79 -2  1020  0.2  754  304           
09 11.12.15 270 (З) 3{11}  10 км    10/10 600 м 
[Sc]
-0.1 -3 81 -2  1019.8  -0.2  754  304           
12 11.12.15 270 (З) 10 км    10/10 570 м 
[Sc]
-0.1 -3.1 80 -2  1019.9  0.1  754  304           
15 11.12.15 240 (ЮЗ) 10 км    10/10 600 м 
[Sc]
-0.7 -3 84 -3  1019.4  -0.5  753  305    +0.9       
18 11.12.15 260 (З) 3{11}  10 км    10/10 630 м 
[Sc]
-0.8 -4.2 78 -3  1018.8  -0.6  753  305           
21 11.12.15 250 (З) 10 км    10/10 600 м 
[Sc]
-0.7 -4 78 -3  1018.9  0.1  753  305           
00 12.12.15 250 (З) 10 км    10/10 450 м 
[Sc]
-1.1 -3.6 83 -2  1018.6  -0.3  753  305           
03 12.12.15 160 (Ю) 10 км    ясно 
-3.6 -5.6 86 -3  1018  -0.7  752  308  -3.6    0.0  сухой снег
50-90% 
06 12.12.15 160 (Ю) 10 км    5/0 верхняя 
[Ci fib]
-4 -6.1 85 -4  1017.3  -0.7  752  308  -4.4         
09 12.12.15 180 (Ю) 10 км    8/0 средняя, верхняя 
[Ac lent|Ci fib]
-2.5 -5.9 77 -2  1015.4  -1.8  750  306           
12 12.12.15 220 (ЮЗ) 10 км    8/6 1000 м верхняя 
[Sc|Ci fib]
-2.4 -6.3 75 -3  1014.6  -0.8  750  305           
15 12.12.15 210 (ЮЗ) 10 км    3/3 1000 м 
[Sc]
-2.6 -7.4 70 -4  1014.4  0.1  749  306    -1       
18 12.12.15 170 (Ю) 10 км    10/10 500 м 
[Sc]
-0.7 -3.9 79 1013  -1.3  749  303           
21 12.12.15 180 (Ю) 10 км    10/10 600 м 
[Sc]
+0 -1.8 88 -1  1011.5  -1.4  747  301           
00 13.12.15 190 (Ю) 10 км  слаб. снег  10/10 570 м 
[Sc]
+1.1 -0.8 87 1009.8  -1.6  746  300           
03 13.12.15 170 (Ю) 10 км  {снег}  10/10 600 м 
[Sc]
+0.4 -0.9 91 -1  1007.8  -2  745  300  -2.7      сухой снег
50-90% 
06 13.12.15 180 (Ю) 2{11}  10 км  {снег}  10/10 600 м 
[Sc]
-0.6 -1.9 91 -1  1006.6  -1.2  744  301           
09 13.12.15 180 (Ю) 2000 м  снег  10/10 180 м 
[Frnb|Ns]
-0.5 -1.7 92 1005.7  -0.9  743  300           
12 13.12.15 210 (ЮЗ) 2000 м  снег [диам. отлож. мокр. снега 5 мм]  10/10 180 м 
[Frnb|Ns]
-0.2 -1.3 92 1005.2  -0.5  743  300           
15 13.12.15 260 (З) 2000 м  снег [диам. отлож. мокр. снега 8 мм]  10/10 180 м 
[Frnb|Ns]
-1.7 -2.7 93 -3  1006.3  744  302    +0.4     
18 13.12.15 260 (З) 10 км  в посл. час снег [диам. отлож. мокр. снега 8 мм]  10/10 210 м 
[Frnb|Ns]
-1.7 -2.8 92 -3  1007.2  0.9  744  302           
21 13.12.15 260 (З) 10 км  {снег} [диам. отлож. мокр. снега 8 мм]  10/10 180 м 
[St]
-1 -2.3 91 -2  1008  0.8  745  301           
00 14.12.15 260 (З) 10 км  в посл. час снег  10/10 210 м 
[St]
-0.9 -2.1 92 1009  746  302           
03 14.12.15 280 (З) 4000 м  слаб. снег  10/10 210 м 
[Frnb|Ns]
-0.9 -1.9 93 -2  1010.4  1.4  747  302  -2    0.8  равномерный
мокрый или
старый снег
100% 
06 14.12.15 300 (СЗ) 10 км  {снег}  10/10 420 м 
[St]
-1.5 -3.6 86 -3  1013.5  749  304           
09 14.12.15 280 (З) 10 км    10/10 630 м 
[Sc]
-1 -2.8 88 -2  1015.5  750  304           
12 14.12.15 280 (З) 10 км  в посл. час снег  10/10 1500 м 
[Sc]
-1 -3.1 86 -2  1017.6  2.1  752  304           
15 14.12.15 250 (З) 2000 м  снег  10/10 400 м 
[Frnb|Ns]
-1.5 -3.2 88 -2  1019.5  1.8  753  306    -0.9  0.0     
18 14.12.15 240 (ЮЗ) 10 км  слаб. снег  10/10 1380 м 
[Sc]
-1.7 -3.3 89 -1  1020.6  754  306           
21 14.12.15 220 (ЮЗ) 10 км  {снег}  10/10 1380 м 
[Sc]
-1.9 -3.4 89 -1  1021.8  1.2  755  307           
00 15.12.15 160 (Ю) 10 км  {снег}  10/10 1380 м 
[Sc]
-2.9 -4.2 91 -2  1022.5  0.6  755  308           
03 15.12.15 150 (ЮВ) 10 км    9/5 600 м средняя 
[Sc|Ac lent]
-3.9 -5 92 -3  1022.4  0.1  755  309  -4    0.0  равномерный
сухой снег
100% 
06 15.12.15 110 (В) 4000 м  слаб. снег  10/0 средняя 
[As op]
-4 -5.1 92 -4  1022.5  0.1  755  309  -4.2         
09 15.12.15 130 (ЮВ) 10 км  {снег}  10/0 средняя 
[As op]
-2.8 -4.3 89 -2  1021.9  -0.5  755  308           
12 15.12.15 080 (В) 10 км  {снег}  9/0 средняя 
[Ac As]
-3 -5.1 85 -3  1021  -0.9  754  308           
15 15.12.15 090 (В) 10 км    8/0 средняя 
[Ac As]
-4.3 -6.1 87 -6  1020.2  -0.9  754  309    -2.5  0.0     
18 15.12.15 080 (В) 10 км    8/0 средняя 
[Ac As]
-5.1 -6.9 87 -5  1018.9  -1.3  753  310           
21 15.12.15 080 (В) 10 км    10/0 средняя 
[As op]
-4.6 -6.2 89 -6  1017.4  -1.5  752  309           
00 16.12.15 040 (СВ) 10 км    10/0 средняя 
[As op]
-5 -6.8 87 -5  1015.7  -1.7  750  309           
03 16.12.15 тихо ()   10 км    10/0 средняя 
[As op]
-6.1 -7.6 89 -6  1014.4  -1.3  749  310  -6.1      равномерный
сухой снег
100% 
06 16.12.15 360 (С) 4000 м  дымка  9/0 средняя 
[As trans]
-7.3 -8.6 90 -7  1013.1  -1.3  748  311  -7.5         
09 16.12.15 280 (З) 0200 м  туман  ?/?  
-6.2 -7.4 91 -8  1011.3  -1.8  747  309           
12 16.12.15 150 (ЮВ) 10 км  {туман}  10/6 210 м средняя 
[St|As op]
-6.3 -7.4 92 -6  1009.1  -2.1  745  308           
15 16.12.15 150 (ЮВ) 2000 м  снег  10/10 180 м 
[Frnb|Ns]
-6 -7.1 92 -6  1006.7  -2.3  744  307    -5  0.2     
18 16.12.15 300 (СЗ) 10 км  слаб. снег  10/10 450 м 
[Frnb|Ns]
-4.8 -6 91 -8  1005.5  -1.1  743  305           
21 16.12.15 290 (З) 4000 м  слаб. снег  10/10 180 м 
[Frnb|Ns]
-5.9 -9.8 74 -8  1005.7  0.1  743  307           
00 17.12.15 280 (З) 3{10}  10 км  в посл. час снег  6/6 300 м 
[St]
-8.3 -10.8 82 -11  1005.9  743  310           
03 17.12.15 290 (З) 10 км    4/0 средняя 
[Ac lent]
-9.5 -11.9 83 -12  1005.9  0.1  743  311  -9.5    равномерный
сухой снег
100% 
06 17.12.15 310 (СЗ) 10 км    9/0 средняя 
[Ac As]
-10.2 -12.5 83 -14  1006.7  0.8  743  312  -10.3         
09 17.12.15 320 (СЗ) 10 км    9/5 300 м средняя 
[St|Ac As]
-10 -13.3 77 -13  1008  1.4  744  313           
12 17.12.15 310 (СЗ) 4{11}  10 км  слаб. снег  9/9 600 м 
[Sc]
-9.8 -13.4 75 -14  1009.9  1.9  746  313           
15 17.12.15 310 (СЗ) 4{11}  10 км  слаб. снег  10/10 540 м 
[Sc]
-10 -13.3 77 -14  1012.1  2.1  747  314    -9.5  0.0     
18 17.12.15 310 (СЗ) 3{11}  10 км  слаб. снег  10/10 500 м 
[Sc]
-10.3 -13 81 -13  1013.6  1.5  749  315           
21 17.12.15 300 (СЗ) 10 км  {снег}  8/8 700 м 
[]
-11.1 -13.3 84 -14  1014.5  0.8  749  316           
00 18.12.15 290 (З) 10 км  слаб. снег  8/8 600 м 
[Sc]
-11 -13.4 82 -14  1015.6  1.1  750  316           
03 18.12.15 300 (СЗ) 10 км  в посл. час снег  8/8 500 м 
[Sc]
-11.7 -14.1 82 -14  1016.3  1.1  751  317  -11.7    0.0  равномерный
сухой снег
100% 
06 18.12.15 300 (СЗ) 4000 м  слаб. снег  10/0 средняя 
[As op]
-11.5 -13.8 83 -15  1017.5  1.2  751  317  -12.2         
09 18.12.15 280 (З) 10 км  слаб. снег  10/9 500 м средняя 
[Sc|As op]
-10.3 -12.8 82 -12  1017.4  0.1  751  316           
12 18.12.15 280 (З) 10 км  слаб. снег  10/9 400 м средняя 
[Frnb|As op]
-10.3 -12.6 83 -13  1017.9  0.5  752  316           
15 18.12.15 290 (З) 10 км  {снег}  4/3 600 м средняя 
[Sc|As op]
-12.4 -14.3 86 -14  1019.1  1.1  752  319    -9.6  0.0     
18 18.12.15 270 (З) 10 км  {снег}  ясно 
-13.5 -15.3 86 -13  1019.5  0.4  753  320           
21 18.12.15 290 (З) 10 км    ясно 
-13.6 -15.2 88 -14  1019.8  0.3  753  321           
00 19.12.15 250 (З) 10 км  [диам. изморози 1 мм]  10/0 средняя 
[As op]
-14.3 -16 87 -14  1020.6  0.7  754  322           
03 19.12.15 140 (ЮВ) 2000 м  дымка [диам. изморози 7 мм]  10/10 180 м 
[St]
-15.5 -17.3 86 -16  1021.2  0.5  754  323  -15.7      10  равномерный
сухой снег
100% 
06 19.12.15 140 (ЮВ) 4000 м  дымка{снег} [диам. изморози 10 мм]  10/0 средняя 
[As trans]
-15.6 -17.4 86 -16  1021.1  0.1  754  324  -15.7         
09 19.12.15 140 (ЮВ) 10 км  [диам. изморози 10 мм]  10/0 средняя 
[As op]
-15.4 -17.3 85 -18  1020.3  -0.8  753  323           
12 19.12.15 130 (ЮВ) 10 км  [диам. изморози 10 мм]  10/0 средняя 
[Ac lent]
-14.5 -16.3 86 -17  1018.6  -1.6  752  321           
15 19.12.15 140 (ЮВ) 4000 м  слаб. снег [диам. изморози 10 мм]  10/0 средняя 
[As op]
-12.5 -14.3 86 -16  1015.7  -2.7  750  318    -12.5  0.0     
18 19.12.15 140 (ЮВ) 3{12}  1000 м  сильн. снег  10/10 150 м 
[Frnb|Ns]
-11.6 -13.3 87 -15  1011.6  -3.9  747  316           
21 19.12.15 140 (ЮВ) 3{10}  1000 м  сильн. снег  10/10 150 м 
[Frnb|Ns]
-10.2 -11.9 87 -13  1008.9  -2.6  745  313           
00 20.12.15 140 (ЮВ) 5-10{12}  2000 м  снег  10/10 180 м 
[Frnb|Ns]
-9.7 -11.5 87 -14  1006.6  -2.3  743  312           
03 20.12.15 140 (ЮВ) 2{10}  4000 м  слаб. снег  10/10 210 м 
[Frnb|Ns]
-9.5 -11.4 86 -11  1005.7  -0.9  743  311  -12.5    15  равномерный
сухой снег
100% 
06 20.12.15 130 (ЮВ) 4000 м  слаб. снег  10/8 240 м средняя 
[Frnb|As op]
-9.1 -10.9 87 -11  1006.3  0.7  743  311           
09 20.12.15 140 (ЮВ) 10 км  слаб. снег  10/8 420 м средняя 
[Frnb|As op]
-7.8 -9.9 85 -9  1007.2  744  310           
12 20.12.15 130 (ЮВ) 2000 м  снег  10/10 300 м 
[Frnb|Ns]
-7.4 -9.2 87 -7  1008.3  1.1  745  309           
15 20.12.15 тихо ()   4000 м  слаб. дождь со снегом{морось} [диам. гололёда 0 мм]  10/10 240 м 
[St]
-7.3 -8.7 90 -7  1009.6  1.3  746  310    -7.3     
18 20.12.15 280 (З) 10 км  в посл. час морось{снег} [диам. гололёда 0 мм]  10/10 180 м 
[St]
-6.7 -7.8 92 -8  1010  0.4  746  309           
21 20.12.15 350 (С) 10 км  [диам. гололёда 0 мм]  10/10 300 м 
[St]
-6.8 -8.2 90 -6  1010.1  0.1  746  309           
00 21.12.15 тихо ()   10 км  [диам. гололёда 0 мм]  10/10 210 м 
[St]
-7 -8.3 90 -7  1010.1  0.1  746  309           
03 21.12.15 тихо ()   10 км  [диам. гололёда 0 мм]  10/10 150 м 
[St]
-7 -8.3 90 -7  1010.1  -0.1  746  309  -7.3    0.0  15  равномерный
сухой снег
100% 
06 21.12.15 100 (В) 4000 м  дымка [диам. гололёда 0 мм]  10/10 180 м 
[St]
-7.4 -8.5 92 -7  1010.3  0.2  746  310  -7.4         
09 21.12.15 120 (ЮВ) 4000 м  дымка [диам. гололёда 0 мм]  10/10 150 м 
[St]
-6.3 -7.3 93 -6  1009.4  -0.8  746  308           
12 21.12.15 140 (ЮВ) 4000 м  дымка [диам. гололёда 0 мм]  10/10 120 м 
[St]
-5.1 -6.1 93 -6  1007.6  -1.7  744  306           
15 21.12.15 150 (ЮВ) 1000 м  слаб. переохл. морось (гололёд) [диам. гололёда 0 мм]  10/10 100 м 
[St]
-2.8 -3.7 94 -4  1004.4  -3  742  303    -2.8  0.0     
18 21.12.15 190 (Ю) 4000 м  в посл. час дождь{морось} [диам. гололёда 3 мм]  10/10 180 м 
[St]
+0.3 -0.5 94 +1  1001.2  -3  740  298           
21 21.12.15 250 (З) 1000 м  в посл. час морось [диам. гололёда 3 мм]  10/10 100 м 
[St]
+2.3 +1.5 94 +2  999.1  -1.9  738  295           
00 22.12.15 260 (З) 0200 м  туман{морось}  10/10 100 м 
[St]
+3.2 +2.4 94 +3  998.6  -0.5  738  294           
03 22.12.15 270 (З) 10 км  {туман}  10/10 330 м 
[St]
+3.4 +2.7 95 +2  997.8  -0.7  737  293  -2.8    10  равномерный
мокрый или
старый снег
100% 
06 22.12.15 250 (З) 10 км  {туман}  10/10 720 м 
[Sc]
+3.6 +2.6 93 +3  997.6  -0.2  737  293           
09 22.12.15 240 (ЮЗ) 10 км    10/10 330 м 
[St]
+3.6 +2.3 91 +3  997  -0.6  737  293           
12 22.12.15 270 (З) 4000 м  дымка  10/10 210 м 
[St]
+3.3 +2.2 92 +3  996.1  -0.9  736  293           
15 22.12.15 270 (З) 2000 м  дымка  10/10 150 м 
[St]
+3 +2 93 +4  996.3  0.1  736  293    +3.8       
18 22.12.15 260 (З) 0500 м  туман  ?/?  
+2.7 +1.9 94 +3  996.2  736  293           
21 22.12.15 270 (З) 0200 м  туман  ?/?  
+2.4 +1.6 94 +3  996.9  0.6  737  294           
00 23.12.15 270 (З) 0200 м  туман  ?/?  
+2.3 +1.6 95 +3  997.9  737  294           
03 23.12.15 280 (З) 2000 м  в посл. час туман{морось}  10/10 150 м 
[St]
+2.1 +1.4 95 +1  998.8  0.9  738  295  +2.1    0.0  равномерный
мокрый или
старый снег
100% 
06 23.12.15 280 (З) 10 км  {морось}  10/0 средняя 
[As trans]
+2.6 +1.8 94 +1  1000.1  1.3  739  295  +2.1         
09 23.12.15 270 (З) 10 км    10/0 средняя 
[As trans]
+2.6 +1.4 92 +2  1000.7  1.3  740  295           
12 23.12.15 270 (З) 10 км    10/10 600 м 
[Sc]
+2.8 +1.2 89 +2  1001.2  0.5  740  295           
15 23.12.15 260 (З) 10 км    10/10 630 м 
[Sc]
+2.7 +0.9 88 +1  1001.4  0.2  740  295    +2.8       
18 23.12.15 250 (З) 10 км    10/10 400 м 
[St]
+2.5 +0.6 87 +2  1000.6  -0.8  740  295           
21 23.12.15 260 (З) 10 км  в посл. час морось  10/10 450 м 
[Sc]
+2.4 +0.5 87 +2  999.7  -0.9  739  295           
00 24.12.15 240 (ЮЗ) 10 км  слаб. морось  10/10 300 м 
[St]
+2 +0.4 89 +1  998.4  -1.4  738  295           
03 24.12.15 240 (ЮЗ) 10 км  слаб. морось  10/10 240 м 
[St]
+1.6 +0.5 92 +1  996.4  -2  736  295  +1.6    0.3  мокрый или
старый снег
50-90% 
06 24.12.15 тихо ()   2000 м  слаб. морось{дождь}  10/10 150 м 
[St]
+1.5 +0.5 93 +2  994.6  -1.8  735  294  +1.5         
09 24.12.15 тихо ()   1000 м  слаб. морось{дождь}  10/10 150 м 
[St]
+1.4 +0.6 94 +1  993.3  -1.3  734  294           
12 24.12.15 350 (С) 10 км  в посл. час туман{дождь, морось}  10/10 180 м 
[St]
+1.3 +0.4 94 +2  993.6  0.3  734  294           
15 24.12.15 330 (СЗ) 10 км    10/10 210 м 
[]
+0.8 -0.2 93 +1  995.2  1.6  735  295    +1.9  0.4     
18 24.12.15 340 (С) 10 км  {снег}  4/0 средняя 
[Ac lent]
+0.5 -0.7 92 997.1  1.8  737  296           
21 24.12.15 330 (СЗ) н/о    н/о 
+0.5 -2 83 -1  999.4  2.2  739  297           
00 25.12.15 340 (С) 10 км    10/0 средняя 
[Ac cast]
+0.2 -2.2 84 -2  1002.4  741  298           
03 25.12.15 340 (С) 10 км    10/0 средняя 
[Ac cast]
+0.1 -2.5 83 -2  1005.1  2.6  743  299  -0      мокрый или
старый снег
50-90% 
06 25.12.15 330 (СЗ) 4{10}  10 км    10/10 630 м 
[Sc]
-1.5 -4.9 78 -4  1007.8  2.6  745  302  -1.5         
09 25.12.15 340 (С) 10 км  слаб. снег  10/10 540 м 
[Sc]
-2.1 -5 80 -4  1009.5  1.6  746  303           
12 25.12.15 320 (СЗ) 3{11}  10 км  слаб. снег  10/10 540 м 
[Sc]
-2.6 -5.5 80 -5  1011.1  1.6  747  305           
15 25.12.15 320 (СЗ) 10 км  слаб. снег  10/10 570 м 
[Sc]
-3.1 -6.4 78 -4  1012.5  1.3  748  306    +0.1  0.2     
18 25.12.15 340 (С) 10 км  {снег}  10/10 450 м 
[Sc]
-3.7 -6.6 80 -5  1012.8  0.2  748  306           
21 25.12.15 300 (СЗ) 10 км    10/10 450 м 
[Sc]
-4.1 -6.8 81 -5  1012.6  -0.2  748  307           
00 26.12.15 280 (З) 10 км    10/10 400 м 
[Sc]
-4.6 -7.1 83 -6  1011.5  -1.1  747  307           
03 26.12.15 260 (З) 10 км    10/10 300 м 
[St]
-5.6 -7.5 86 -5  1010.2  -1.4  746  308  -5.7    0.0  мокрый или
старый снег
50-90% 
06 26.12.15 190 (Ю) 10 км    8/8 600 м 
[Sc]
-6.1 -8.5 83 -6  1008.3  -2  745  308  -6.1         
09 26.12.15 170 (Ю) 10 км    10/10 870 м 
[Sc]
-5.7 -9.2 76 -7  1005.5  -2.7  743  307           
12 26.12.15 150 (ЮВ) 2000 м  крупа{ливн. осадки}  10/10 180 м кучево-дожд. 
[Cb calv]
-5.8 -7.7 86 -7  1002.9  -2.5  741  306           
15 26.12.15 140 (ЮВ) 2000 м  снег{ливн. осадки}  10/10 180 м 
[Frnb|Ns]
-5.4 -6.7 91 -7  1000.8  -2.1  739  305    -5.4     
18 26.12.15 140 (ЮВ) 2000 м  снег  10/0 средняя 
[As op]
-4.8 -6 91 -6  999.1  -1.6  738  303           
21 26.12.15 160 (Ю) 4000 м  слаб. снег  10/10 180 м 
[Frnb|Ns]
-3.6 -4.7 92 -3  998.1  -0.9  737  302           
00 27.12.15 180 (Ю) 10 км  {снег}  10/10 300 м 
[St]
-0.7 -1.7 93 996.9  -1  737  298           
03 27.12.15 160 (Ю) 4000 м  слаб. снег  10/10 360 м 
[Frnb|Ns]
+0.1 -0.9 93 +1  995.1  -1.7  735  296  -5.4    равномерный
сухой снег
100% 
06 27.12.15 240 (ЮЗ) 2000 м  снег  10/10 300 м 
[Frnb|Ns]
+0.3 -0.6 94 994.3  -0.8  735  296           
09 27.12.15 270 (З) 10 км  в посл. час снег  10/10 330 м 
[Frnb|Ns]
+0.6 -0.8 90 -1  994.1  -0.2  735  295           
12 27.12.15 270 (З) 10 км  {снег}  10/10 570 м 
[Sc]
+0.1 -2.9 80 -1  995.2  735  296           
15 27.12.15 320 (СЗ) 10 км    6/0 средняя 
[Ac cast]
-2.1 -5 80 -4  996.9  1.6  737  300    +0.7  0.0     
18 27.12.15 330 (СЗ) 10 км    10/10 720 м 
[Sc]
-3.5 -6.9 77 -6  999.2  2.1  738  302           
21 27.12.15 300 (СЗ) 4000 м  слаб. снег  10/10 570 м 
[Ns]
-4 -6.8 81 -6  1001  1.8  740  303           
00 28.12.15 320 (СЗ) 10 км  {снег}  10/10 540 м 
[Sc]
-4.2 -7.1 80 -6  1002.9  1.8  741  304           
03 28.12.15 310 (СЗ) 10 км    10/10 570 м 
[Sc]
-3.8 -6.8 80 -6  1004.5  1.6  742  304  -4.4    0.0  равномерный
сухой снег
100% 
06 28.12.15 290 (З) 2000 м  снег  10/10 210 м 
[Frnb|Ns]
-4 -5.7 88 -6  1006.1  1.5  743  305           
09 28.12.15 320 (СЗ) 10 км  в посл. час снег  10/10 500 м 
[Sc]
-3.1 -5.7 82 -5  1008.1  1.5  745  304           
12 28.12.15 320 (СЗ) 3{10}  10 км  слаб. снег  10/10 720 м 
[Sc]
-3.6 -7.5 74 -6  1011  2.9  747  306           
15 28.12.15 300 (СЗ) 4000 м  слаб. снег  10/10 330 м 
[Frnb|Ns]
-3.7 -5.7 86 -6  1012.4  1.4  748  306    -3.1     
18 28.12.15 310 (СЗ) 4000 м  слаб. снег  10/10 300 м 
[Frnb]
-3.1 -5.4 84 -5  1013.9  1.4  749  306           
21 28.12.15 310 (СЗ) 4000 м  слаб. снег  10/10 270 м 
[Frnb|Ns]
-3 -5.2 85 -5  1015.5  1.6  750  306           
00 29.12.15 310 (СЗ) 4000 м  слаб. снег  10/10 200 м 
[Frnb|Ns]
-3.9 -6.3 83 -5  1016.7  1.6  751  308           
03 29.12.15 330 (СЗ) 10 км  {снег}  10/0 средняя 
[Ac cast]
-5.2 -9.6 71 -8  1018  1.1  752  310  -5.2    0.4  равномерный
сухой снег
100% 
06 29.12.15 310 (СЗ) 10 км  снежные зёрна  9/8 180 м верхняя 
[St|Ci fib]
-7 -10.1 79 -8  1020.2  2.1  754  313  -7.1         
09 29.12.15 330 (СЗ) 10 км  {снег}  8/1 300 м средняя, верхняя 
[St|Ac lent|Ci fib]
-6 -9.7 75 -9  1020.9  0.8  754  312           
12 29.12.15 320 (СЗ) 10 км  {снег}  10/10 1260 м 
[Sc]
-5.7 -11.7 63 -8  1022.5  1.6  755  312           
15 29.12.15 330 (СЗ) 10 км  слаб. снег  10/10 660 м 
[Sc]
-6.5 -10 76 -8  1024  1.4  756  313    -5.2  0.3     
18 29.12.15 310 (СЗ) 10 км  слаб. снег  10/10 660 м 
[Ns]
-7.8 -11.9 72 -9  1024.8  0.8  757  315           
21 29.12.15 320 (СЗ) 10 км  {снег}  8/8 600 м 
[Sc]
-8.4 -11.7 77 -10  1025.5  0.6  757  316           
00 30.12.15 330 (СЗ) 10 км  {снег}  6/0 средняя 
[Ac lent]
-9.4 -12.7 77 -11  1026.3  0.7  758  317           
03 30.12.15 330 (СЗ) н/о    н/о 
-10.6 -13.1 82 -10  1027  0.6  758  319  -10.6         
06 30.12.15 350 (С) 1000 м  сильн. снег  10/0 средняя 
[As op]
-10.2 -12.5 83 -12  1028.1  1.1  759  319  -10.6         
09 30.12.15 010 (С) 4000 м  слаб. снег  10/8 420 м средняя 
[Frnb|As op]
-10.3 -13.7 76 -13  1029  0.8  760  319           
12 30.12.15 040 (СВ) 4000 м  слаб. снег  9/6 450 м средняя 
[Frnb|Ac As]
-10.9 -13.9 78 -14  1030  761  321           
15 30.12.15 350 (С) 4000 м  слаб. снег  10/8 270 м средняя 
[Frnb|As op]
-10.7 -13.5 80 -13  1031.3  1.3  762  321    -10  0.6     
18 30.12.15 030 (СВ) 10 км  {снег}  10/0 средняя 
[Ac lent]
-12.1 -14.8 80 -14  1032.5  1.1  762  323           
21 30.12.15 010 (С) 10 км    1/0 средняя 
[Ac lent]
-13.6 -15.9 83 -14  1033  0.5  763  325           
00 31.12.15 020 (С) 10 км    ясно 
-14.2 -16.4 83 -14  1033.6  0.5  763  326           
03 31.12.15 350 (С) 10 км    ясно 
-15.1 -17.2 84 -15  1033.9  0.3  763  327  -15.1    0.0  10  равномерный
сухой снег
100% 
06 31.12.15 030 (СВ) 10 км    ясно 
-16 -18.1 84 -16  1034.4  0.4  764  328  -16         
09 31.12.15 060 (СВ) 10 км    4/0 средняя 
[Ac lent]
-15.6 -18.4 79 -19  1035.3  0.9  764  328           
12 31.12.15 010 (С) 10 км    4/0 средняя 
[Ac lent]
-17.3 -20.7 75 -20  1035.3  0.1  764  330           
15 31.12.15 030 (СВ) 10 км    6/0 средняя 
[Ac cast]
-19.6 -22.6 77 -20  1036.3  0.8  765  334    -14.7       
18 31.12.15 060 (СВ) 10 км    5/0 средняя 
[As op]
-18.8 -21.7 78 -19  1036.6  0.4  765  333           
21 31.12.15 040 (СВ) 4000 м  слаб. снег  10/9 1080 м средняя 
[Sc|As op]
-16.5 -19.5 78 -17  1036.9  0.4  765  330           
00 01.01.16 050 (СВ) 10 км  {снег}  10/10 1500 м 
[Sc]
-15.5 -18.6 77 -16  1037  0.1  766  329           
03 01.01.16 060 (СВ) 10 км    8/0 средняя 
[As op]
-17.5 -20.7 76 -21  1038  0.9  766  332  -19.7    0.0  10  равномерный
сухой снег
100% 
Время (UTC), дата Ветер
(°,м/с) 
Видим.   Явления Облачность Т
(°С)
Тd
(°С)
f(%) Тe
(°С)
Pmin
(гПа)
dP
(гПа)
Po
(мм)
O2
(г/м3)
Тmin Tmax R s Состояние
почвы